Voltar ao catálogo

STARLINK-3086

AtivoComunicaçõesVLEO
NORAD 49178·PAYLOAD·🇺🇸 United States

Lançado Sep 14, 2021 de Vandenberg Space Force Base

Loading…

Próximas Passagens (próximas 24 horas)

TLE

AtualizadoSource: CelesTrak SupGP

Época: Sep 14, 2026, 21:37 UTC

1 49178C 21082BA  26257.90118056 -.00042468  00000+0 -35584-2 0  2573
2 49178  70.0022 177.3738 0002902 269.3879 191.3844 14.98358684    12

Acompanhe STARLINK-3086 em tempo real com AllMySat

Download on the App Store